TimeCST,TemperatureF,Dew PointF,Humidity,Sea Level PressureIn,VisibilityMPH,Wind Direction,Wind SpeedMPH,Gust SpeedMPH,PrecipitationIn,Events,Conditions,WindDirDegrees,DateUTC
12:15 AM,26.4,21.4,81,30.24,10.0,West,4.6,-,N/A,,Clear,260,2013-01-03 06:15:00
12:35 AM,26.1,21.2,82,30.23,10.0,West,5.8,-,N/A,,Clear,270,2013-01-03 06:35:00
12:55 AM,26.1,20.8,81,30.23,10.0,West,5.8,-,N/A,,Scattered Clouds,280,2013-01-03 06:55:00
1:15 AM,26.1,20.7,80,30.23,10.0,West,4.6,-,N/A,,Clear,260,2013-01-03 07:15:00
1:35 AM,25.7,20.8,82,30.24,10.0,WSW,3.5,-,N/A,,Mostly Cloudy,240,2013-01-03 07:35:00
1:55 AM,24.8,20.3,83,30.24,7.0,SW,3.5,-,N/A,,Overcast,230,2013-01-03 07:55:00
2:15 AM,23.9,20.3,86,30.25,7.0,SW,3.5,-,N/A,,Scattered Clouds,230,2013-01-03 08:15:00
2:35 AM,23.2,21.0,91,30.25,7.0,Calm,Calm,-,N/A,,Clear,0,2013-01-03 08:35:00
2:55 AM,23.5,21.7,93,30.26,7.0,West,3.5,-,N/A,,Clear,280,2013-01-03 08:55:00
3:15 AM,23.5,21.2,91,30.27,7.0,West,3.5,-,N/A,,Clear,260,2013-01-03 09:15:00
3:35 AM,22.5,20.7,93,30.27,5.0,Calm,Calm,-,N/A,,Clear,0,2013-01-03 09:35:00
3:55 AM,21.0,20.3,97,30.27,4.0,NW,3.5,-,N/A,,Clear,310,2013-01-03 09:55:00
4:15 AM,21.4,20.7,97,30.26,7.0,WNW,3.5,-,N/A,,Clear,290,2013-01-03 10:15:00
4:35 AM,22.1,20.8,95,30.27,7.0,Calm,Calm,-,N/A,,Clear,0,2013-01-03 10:35:00
4:55 AM,21.9,20.5,94,30.27,5.0,Calm,Calm,-,N/A,,Clear,0,2013-01-03 10:55:00
5:15 AM,20.3,19.0,95,30.27,5.0,Calm,Calm,-,N/A,,Clear,0,2013-01-03 11:15:00
5:35 AM,18.5,17.6,96,30.28,4.0,Calm,Calm,-,N/A,,Clear,0,2013-01-03 11:35:00
5:55 AM,18.1,17.4,97,30.28,4.0,Calm,Calm,-,N/A,,Clear,0,2013-01-03 11:55:00
6:15 AM,19.2,18.7,98,30.29,4.0,Calm,Calm,-,N/A,,Clear,0,2013-01-03 12:15:00
6:35 AM,19.2,18.5,97,30.29,3.0,Calm,Calm,-,N/A,,Clear,0,2013-01-03 12:35:00
6:55 AM,19.2,18.7,98,30.30,4.0,SSW,3.5,-,N/A,,Clear,200,2013-01-03 12:55:00
7:35 AM,18.7,18.1,98,30.32,2.0,SSW,3.5,-,N/A,,Clear,210,2013-01-03 13:35:00
7:55 AM,19.0,18.3,97,30.32,2.5,SSW,3.5,-,N/A,,Clear,210,2013-01-03 13:55:00
8:15 AM,19.4,18.5,96,30.33,2.5,SW,4.6,-,N/A,,Clear,220,2013-01-03 14:15:00
8:35 AM,19.9,19.4,98,30.34,3.0,SW,3.5,-,N/A,,Clear,220,2013-01-03 14:35:00
8:55 AM,21.6,20.8,97,30.35,4.0,SSW,3.5,-,N/A,,Clear,210,2013-01-03 14:55:00
9:15 AM,23.2,22.5,97,30.36,4.0,WSW,4.6,-,N/A,,Scattered Clouds,240,2013-01-03 15:15:00
9:35 AM,25.5,24.3,95,30.37,5.0,West,3.5,-,N/A,,Overcast,260,2013-01-03 15:35:00
9:55 AM,29.1,25.7,87,30.38,7.0,WSW,5.8,-,N/A,,Overcast,240,2013-01-03 15:55:00
10:15 AM,29.7,25.7,85,30.38,7.0,WSW,3.5,-,N/A,,Overcast,240,2013-01-03 16:15:00
10:35 AM,30.2,25.9,84,30.38,7.0,SW,3.5,-,N/A,,Overcast,230,2013-01-03 16:35:00
10:55 AM,31.1,26.1,82,30.38,7.0,WSW,3.5,-,N/A,,Overcast,240,2013-01-03 16:55:00
11:15 AM,31.8,25.3,77,30.38,10.0,SW,4.6,-,N/A,,Overcast,230,2013-01-03 17:15:00
11:35 AM,32.5,25.5,75,30.37,10.0,WSW,5.8,-,N/A,,Mostly Cloudy,240,2013-01-03 17:35:00
11:55 AM,34.0,25.7,72,30.36,10.0,SW,4.6,-,N/A,,Clear,230,2013-01-03 17:55:00
12:15 PM,34.9,25.7,69,30.36,10.0,West,6.9,-,N/A,,Clear,260,2013-01-03 18:15:00
12:35 PM,35.1,25.9,69,30.35,10.0,West,8.1,-,N/A,,Clear,280,2013-01-03 18:35:00
12:55 PM,34.9,25.7,69,30.34,10.0,West,4.6,-,N/A,,Clear,270,2013-01-03 18:55:00
1:15 PM,35.6,26.2,69,30.34,10.0,West,6.9,-,N/A,,Clear,280,2013-01-03 19:15:00
1:35 PM,36.1,26.2,67,30.34,10.0,WNW,9.2,-,N/A,,Clear,300,2013-01-03 19:35:00
1:55 PM,36.3,26.2,67,30.34,10.0,WNW,9.2,-,N/A,,Scattered Clouds,300,2013-01-03 19:55:00
2:15 PM,36.5,26.6,67,30.34,10.0,WNW,4.6,-,N/A,,Clear,290,2013-01-03 20:15:00
2:35 PM,37.0,26.4,65,30.34,10.0,West,6.9,-,N/A,,Clear,260,2013-01-03 20:35:00
2:55 PM,37.2,26.4,65,30.35,10.0,WSW,8.1,-,N/A,,Scattered Clouds,250,2013-01-03 20:55:00
3:15 PM,36.0,26.4,68,30.35,10.0,West,4.6,-,N/A,,Mostly Cloudy,270,2013-01-03 21:15:00
3:35 PM,36.1,27.0,69,30.35,10.0,Calm,Calm,-,N/A,,Overcast,0,2013-01-03 21:35:00
3:55 PM,36.1,27.1,70,30.35,10.0,West,4.6,-,N/A,,Overcast,270,2013-01-03 21:55:00
4:15 PM,36.1,27.0,69,30.35,10.0,West,4.6,-,N/A,,Mostly Cloudy,270,2013-01-03 22:15:00
4:35 PM,35.8,27.0,70,30.36,10.0,WNW,3.5,-,N/A,,Mostly Cloudy,290,2013-01-03 22:35:00
4:55 PM,35.4,26.8,71,30.36,10.0,West,4.6,-,N/A,,Overcast,280,2013-01-03 22:55:00
5:15 PM,34.5,26.4,72,30.37,10.0,WNW,4.6,-,N/A,,Mostly Cloudy,290,2013-01-03 23:15:00
5:35 PM,33.4,26.1,74,30.37,10.0,NW,5.8,-,N/A,,Mostly Cloudy,310,2013-01-03 23:35:00
5:55 PM,32.5,25.5,75,30.38,10.0,WNW,4.6,-,N/A,,Mostly Cloudy,290,2013-01-03 23:55:00
6:15 PM,32.5,25.0,74,30.38,10.0,WNW,4.6,-,N/A,,Overcast,290,2013-01-04 00:15:00
6:35 PM,32.2,24.4,73,30.39,10.0,WNW,5.8,-,N/A,,Mostly Cloudy,300,2013-01-04 00:35:00
6:55 PM,31.8,23.9,73,30.39,10.0,WNW,4.6,-,N/A,,Scattered Clouds,300,2013-01-04 00:55:00
7:15 PM,31.5,23.4,72,30.40,10.0,NW,6.9,-,N/A,,Mostly Cloudy,320,2013-01-04 01:15:00
7:35 PM,31.1,22.8,71,30.40,10.0,NW,6.9,-,N/A,,Overcast,310,2013-01-04 01:35:00
7:55 PM,30.0,21.9,72,30.41,10.0,NW,5.8,-,N/A,,Scattered Clouds,320,2013-01-04 01:55:00
8:15 PM,28.8,21.2,73,30.40,10.0,NNW,5.8,-,N/A,,Clear,330,2013-01-04 02:15:00
8:35 PM,28.0,20.8,74,30.40,10.0,NNW,3.5,-,N/A,,Clear,340,2013-01-04 02:35:00
8:55 PM,27.7,20.8,75,30.40,10.0,Calm,Calm,-,N/A,,Clear,0,2013-01-04 02:55:00
9:15 PM,27.0,20.3,76,30.40,10.0,Calm,Calm,-,N/A,,Clear,0,2013-01-04 03:15:00
9:35 PM,26.8,20.3,77,30.40,10.0,Calm,Calm,-,N/A,,Clear,0,2013-01-04 03:35:00
9:55 PM,26.1,20.1,78,30.40,10.0,Calm,Calm,-,N/A,,Clear,0,2013-01-04 03:55:00
10:15 PM,24.3,19.6,82,30.40,10.0,Calm,Calm,-,N/A,,Clear,0,2013-01-04 04:15:00
10:35 PM,24.4,20.1,84,30.40,10.0,Calm,Calm,-,N/A,,Clear,0,2013-01-04 04:35:00
10:55 PM,24.3,19.9,84,30.40,10.0,Calm,Calm,-,N/A,,Clear,0,2013-01-04 04:55:00
11:15 PM,22.8,20.5,91,30.40,10.0,Calm,Calm,-,N/A,,Clear,0,2013-01-04 05:15:00
11:35 PM,22.8,20.7,91,30.39,10.0,Calm,Calm,-,N/A,,Clear,0,2013-01-04 05:35:00